Location: Brivezac
(45.0257°N, 1.8408°E)
Time: 12:35:33
(UTC+00:00)

Daily predictions for brighter satellites

Satellite Brightness Start Highest point End
(mag) Time Altitude Azimuth Time Altitude Azimuth Time Altitude Azimuth
COSMOS 2406 3.5 19:47:17 10° SSW 19:52:57 75° WNW 19:58:42 10° NNE
BREEZE-M DEB (TANK) 3.3 19:50:18 10° SSW 19:53:17 40° SE 20:01:22 10° ENE
Cosmos 2322 Rocket 4.0 19:50:33 10° N 19:54:26 18° NE 19:58:17 10° E
Meteor 2-13 Rocket 4.5 19:48:22 10° S 19:54:28 81° E 20:00:34 10° N
IRS-1A Rocket 4.3 19:50:13 10° SSE 19:55:43 73° ENE 20:01:13 10° N
Cosmos 1689 Rocket 3.2 19:54:18 10° N 19:56:58 45° WNW 19:59:37 10° SSW
BREEZE-M DEB (TANK) 3.4 19:56:33 10° WNW 19:59:23 66° NNE 20:07:04 10° ESE
MOS 1 4.3 19:54:20 10° SSE 20:00:01 81° ENE 20:05:41 10° NNW
Cosmos 1538 Rocket 4.4 19:55:47 10° S 20:00:37 40° ESE 20:05:27 10° NE
Resurs 01 Rocket 2.0 19:59:26 10° SE 20:03:42 49° ENE 20:08:01 10° N
Cosmos 2151 4.0 20:01:46 10° SSE 20:05:22 28° E 20:09:01 10° NNE
Cosmos 44 Rocket 4.0 20:01:10 10° SW 20:06:19 65° NW 20:11:33 10° NNE
ERS-2 2.2 20:02:47 10° NNE 20:06:23 54° ESE 20:09:56 10° S
Cosmos 2098 Rocket 2.9 20:03:46 10° SSE 20:06:39 39° E 20:10:00 10° NNE
Gbstr 26 Del rocket 3.8 20:04:50 10° NW 20:08:21 39° NNE 20:12:02 10° E
USA 186 4.2 20:10:18 10° SW 20:12:37 20° W 20:14:50 10° NW
Ariane Rocket 3.1 20:13:00 10° S 20:18:04 79° WSW 20:23:10 10° NNW
SL-16 R/B 3.2 20:18:18 10° N 20:23:28 34° NE 20:28:03 12° ESE
Cosmos 1782 4.2 20:24:29 10° NNE 20:27:45 23° ENE 20:30:03 15° ESE
Cosmos 371 Rocket 3.3 20:23:35 10° NNW 20:28:25 80° ENE 20:32:51 12° SSE
ARIANE 5 R/B 3.8 20:26:51 13° ESE 20:29:59 28° ENE 20:33:46 10° N
Cosmos 1271 Rocket 3.6 20:30:40 10° N 20:34:23 36° ENE 20:36:55 17° SE
SPOT 1/Viking Rocket 3.7 20:31:18 12° SSE 20:36:01 63° ENE 20:41:11 10° N
USA 276 2.8 20:32:57 10° WNW 20:36:01 48° NNE 20:38:32 14° E
BREEZE-M DEB (TANK) 2.4 20:34:19 10° WNW 20:37:12 86° NNE 20:43:14 13° ESE
Cosmos 1076 Rocket 3.7 20:33:24 10° SSW 20:37:43 76° W 20:42:07 10° N
Cosmos 1697 Rocket 4.3 20:34:46 10° NW 20:39:39 31° WSW 20:44:32 10° SSW
OBJECT-B 3.8 20:39:21 10° WSW 20:40:40 12° W 20:41:59 10° WNW
Cosmos 1151 Rocket 4.2 20:37:38 10° NNE 20:41:23 27° ENE 20:43:40 18° ESE
ATLAS 2AS CENTAUR R/B 3.9 20:36:16 10° WSW 20:43:59 53° NW 20:51:30 10° NNE
Cosmos 923 Rocket 4.3 20:41:55 10° S 20:46:59 46° ESE 20:52:04 10° NNE
Terra 3.0 20:47:56 17° ESE 20:50:35 27° ENE 20:54:36 10° N
ATLAS 3B R/B 3.0 20:43:34 10° NW 20:50:40 72° WSW 20:56:42 16° SSE
SPOT 5 3.4 20:50:48 20° ESE 20:53:10 36° ENE 20:57:11 10° N
Cosmos 2082 Rocket 3.4 20:49:59 10° SW 20:55:22 46° WNW 21:00:50 10° NNE
USA 267 4.2 20:50:35 10° ENE 20:55:35 23° SE 20:59:02 15° SSE
Cosmos 1092 Rocket 4.0 20:49:23 10° S 20:55:37 75° E 21:01:56 10° NNE
Meteor 2-19 Rocket 4.4 20:49:41 10° S 20:55:44 86° E 21:01:50 10° N
Cosmos 1633 4.2 20:53:50 10° SW 20:57:09 34° WNW 21:00:31 10° N
Cosmos 2278 4.4 20:54:17 10° NW 20:59:44 50° WSW 21:04:37 13° S
BREEZE-M DEB (TANK) 3.2 20:59:11 10° W 21:01:41 36° NNW 21:03:12 13° NE
ERS-1 Rocket 3.3 21:00:35 23° SE 21:03:32 51° ENE 21:08:24 10° N
SL-27 R/B 4.3 21:06:23 17° E 21:06:23 17° E 21:08:11 10° NE
Cosmos 332 Rocket 3.9 21:00:51 10° NNW 21:05:45 77° WSW 21:08:58 22° SSE
Cosmos 2360 Rocket 3.2 21:01:44 10° N 21:06:51 34° NE 21:10:08 19° ESE
Cosmos 158 Rocket 4.2 21:01:43 10° SSW 21:06:51 75° WNW 21:12:10 10° NNE
Cosmos 2026 Rocket 4.0 21:02:18 10° S 21:08:35 76° E 21:14:52 10° NNE
GP-B 3.0 21:09:01 10° N 21:13:29 82° E 21:16:14 23° S
ISS -3.3 21:11:53 10° WNW 21:15:09 47° SW 21:15:56 38° S
Cosmos 2333 Rocket 3.8 21:12:44 10° N 21:17:10 23° NE 21:20:38 14° E
Spot 2 Rocket 3.5 21:14:48 23° SSE 21:18:06 85° WSW 21:23:15 10° NNW
Meteor 1-26 Rocket 4.4 21:13:56 10° NNW 21:19:54 80° W 21:23:54 21° S
Cosmos 1371 Rocket 4.4 21:15:35 10° NNW 21:20:51 52° ENE 21:23:22 29° SE
Cosmos 2112 Rocket 4.0 21:17:49 19° S 21:21:34 59° ESE 21:26:45 10° NNE
Cosmos 1680 Rocket 3.4 21:17:27 14° S 21:22:03 70° ESE 21:27:17 10° NNE
Cosmos 1812 3.2 21:18:25 10° N 21:22:09 44° ENE 21:23:03 37° ESE
Cosmos 220 Rocket 4.2 21:20:00 10° NNW 21:24:17 57° ENE 21:25:50 35° SE
CZ-2C R/B 4.3 21:20:54 10° N 21:25:21 56° WNW 21:29:42 10° SSW
Okean 3 Rocket 3.5 21:24:58 29° S 21:27:11 72° E 21:31:42 10° NNE
Cosmos 1980 Rocket 4.0 21:23:28 10° NW 21:27:53 24° WSW 21:32:18 10° SSW
USA 245 4.5 21:25:06 18° S 21:28:46 50° WSW 21:33:00 10° NNW
USA 234 4.5 21:24:23 10° E 21:30:19 38° NNE 21:36:15 10° NW
Cosmos 2322 Rocket 2.1 21:33:36 10° NNW 21:39:16 88° WSW 21:41:46 35° SSE
Resurs 01 Rocket 4.1 21:37:30 10° SW 21:40:28 17° W 21:43:27 10° NW
Cosmos 1408 Rocket 3.7 21:40:12 44° SE 21:41:04 52° E 21:45:18 10° NNE
Meteor 2-14 Rocket 4.4 21:43:59 26° S 21:47:39 83° E 21:53:50 10° N
Cosmos 2084 3.2 21:48:52 30° SSW 21:50:47 83° SE 21:54:57 10° NE
Cosmos 1553 Rocket 3.9 21:46:32 10° N 21:52:37 83° W 21:55:36 33° S
CZ-4B DEB 4.3 21:53:29 73° NNE 21:53:29 73° NNE 21:56:25 10° N
Gbstr 26 Del rocket 2.9 21:51:30 10° WNW 21:55:13 54° SW 21:55:26 53° SSW
Cosmos 2266 Rocket 4.1 21:53:29 37° SE 21:55:38 54° E 22:01:41 10° NNE
Cosmos 1862 3.2 21:57:03 55° SSW 21:57:52 83° WNW 22:01:52 10° N
Cosmos 2219 Rocket 3.2 21:55:39 10° NNW 22:00:47 36° NE 22:02:58 27° E
Cosmos 1624 Rocket 3.9 21:56:08 10° NNW 22:01:22 82° WSW 22:02:57 46° S
Cosmos 1782 4.5 22:00:34 10° NNW 22:04:01 28° W 22:05:38 21° SW
NOSS 2-1 (E) 3.0 22:05:21 66° NNE 22:05:21 66° NNE 22:08:22 10° NE
Cosmos 2228 Rocket 3.9 22:01:39 10° N 22:05:45 36° ENE 22:06:05 35° E
Cosmos 1515 Rocket 3.5 22:01:30 10° N 22:05:59 89° E 22:06:43 61° S
ARIANE 5 R/B 4.0 22:04:24 23° SW 22:06:19 32° W 22:10:21 10° NNW
H-2A R/B 3.3 22:02:29 10° NNE 22:06:43 80° ESE 22:07:15 66° S
SL-16 R/B 3.0 22:02:22 10° NW 22:07:39 41° WSW 22:09:55 28° SSW
NOSS 3-1 (C) 4.3 22:02:27 10° NW 22:09:52 66° NE 22:14:30 30° ESE
COSMOS 2455 3.1 22:09:10 42° SE 22:09:53 44° ESE 22:15:34 10° NE
Cosmos 2333 4.4 22:04:58 10° NNW 22:10:32 58° ENE 22:12:13 41° ESE
Cosmos 2237 4.4 22:06:18 10° NNW 22:11:57 65° WSW 22:13:45 43° S
USA 276 4.0 22:09:15 10° WNW 22:10:46 23° W 22:10:46 23° W
Cosmos 1420 Rocket 3.9 22:07:02 10° NNW 22:12:24 84° ENE 22:13:43 52° SSE
Cosmos 1655 Rocket 4.0 22:12:44 37° S 22:15:28 86° E 22:21:54 10° N
COSMOS 2428 3.6 22:10:14 10° NNW 22:15:34 39° NE 22:17:35 29° E
Meteor 2-6 Rocket 4.5 22:11:41 10° NNW 22:16:59 57° W 22:18:53 37° SSW
Spot 4 4.4 22:21:45 40° E 22:22:28 43° ENE 22:27:01 10° N
S3M 4.1 22:16:33 10° NNW 22:22:56 74° W 22:25:25 39° S
USA 229 DEB 4.4 22:16:53 10° NNW 22:23:59 53° NE 22:28:16 26° ESE
USA 229 4.4 22:16:59 10° NNW 22:24:04 52° NE 22:28:23 26° ESE
ATLAS 5 CENTAUR R/B 3.4 22:22:21 10° NNW 22:27:23 37° NE 22:30:39 22° E
Terra 2.9 22:26:50 30° SW 22:28:12 36° W 22:32:36 10° NNW
COSMOS 2487 4.1 22:31:49 26° NE 22:31:49 26° NE 22:33:29 10° NNE
SPOT 5 4.4 22:30:02 19° WSW 22:31:24 22° W 22:34:48 10° NW
Cosmos 1452 Rocket 3.6 22:26:40 10° NNW 22:31:54 64° ENE 22:32:49 54° ESE
ALOS 2 3.8 22:33:57 30° ENE 22:34:12 31° ENE 22:38:04 10° N
USA 267 3.1 22:32:39 10° NE 22:39:14 81° SE 22:45:47 10° SW
SL-27 R/B 4.1 22:39:50 29° W 22:40:29 31° WNW 22:43:45 10° N
Cosmos 2056 Rocket 4.4 22:36:26 10° NW 22:41:20 37° WSW 22:42:28 33° SW
Meteor 1-27 Rocket 3.7 22:37:20 10° NNW 22:42:59 76° W 22:44:14 55° SSW
NOSS 3-1 (A) 4.3 22:37:09 10° NW 22:44:33 66° NE 22:48:48 32° ESE
Cosmos 1805 Rocket 3.5 22:49:13 82° NE 22:49:13 82° NE 22:53:31 10° N
Cosmos 2360 Rocket 2.9 22:45:40 10° NW 22:50:55 41° WSW 22:51:53 37° SW
IRIDIUM 104 4.3 22:46:19 10° N 22:51:32 74° W 22:52:18 62° SSW
Meteor 1-20 Rocket 4.1 22:54:51 65° SSE 22:55:32 73° E 23:01:12 10° NNE
Cosmos 1110 Rocket 4.3 22:52:41 10° NNW 22:57:57 57° ENE 22:58:40 52° E
Cosmos 1500 Rocket 4.5 22:59:40 38° W 23:00:17 41° WNW 23:04:30 10° N
Cosmos 2333 Rocket 2.1 22:56:21 10° NNW 23:01:58 69° WSW 23:02:38 62° SSW
Cosmos 1331 Rocket 4.2 22:58:12 10° NNW 23:03:23 56° ENE 23:03:58 53° E
Meteor 1-22 4.5 23:03:00 68° SSW 23:03:43 86° W 23:09:16 10° N
Cosmos 1244 Rocket 4.4 23:03:47 59° SE 23:04:48 70° E 23:10:58 10° NNE
Cosmos 972 Rocket 4.3 23:07:27 48° WSW 23:08:39 61° WNW 23:13:40 10° NNE
COBE Rocket 4.1 23:09:06 55° W 23:09:07 55° W 23:13:44 10° NNW
Cosmos 2322 3.8 23:06:33 10° NNW 23:12:11 60° WSW 23:12:44 57° SW
USA 234 3.3 23:10:02 38° ESE 23:12:49 79° NE 23:19:24 10° NW
NOSS 0 Rocket 4.1 23:08:16 10° NNW 23:14:29 64° ENE 23:16:01 49° ESE
Cosmos 2297 Rocket 3.2 23:17:11 31° E 23:17:11 31° E 23:21:34 10° NE
Cosmos 468 4.5 23:16:08 67° WSW 23:16:43 75° WNW 23:21:58 10° NNE
Lacrosse 5 3.5 23:21:59 23° E 23:21:59 23° E 23:24:13 10° ENE
Cosmos 2322 Rocket 4.3 23:20:01 10° WNW 23:22:25 13° W 23:23:35 12° WSW
Cosmos 2237 Rocket 2.9 23:17:10 10° NNW 23:22:39 47° ENE 23:24:01 39° E
Cosmos 1500 4.3 23:26:57 42° NNE 23:26:57 42° NNE 23:29:37 10° NNE
Meteor 1-18 Rocket 4.1 23:20:23 10° N 23:26:17 80° E 23:26:57 69° SE
Cosmos 1470 Rocket 4.5 23:29:03 40° ENE 23:29:03 40° ENE 23:32:19 10° NNE
Cosmos 2227 Rocket 3.4 23:28:53 29° E 23:28:53 29° E 23:33:10 10° NE
Sich 1 3.8 23:28:46 46° WNW 23:28:46 46° WNW 23:32:50 10° N
Meteor 1-25 Rocket 4.4 23:30:16 54° WSW 23:31:11 62° WNW 23:36:43 10° N
Cosmos 2285 Rocket 4.3 23:25:38 10° NNW 23:31:42 52° WSW 23:32:33 49° SW
Cosmos 1633 Rocket 3.3 23:33:06 65° N 23:33:06 65° N 23:36:51 10° N
Okean 1 4.1 23:28:42 10° NNW 23:31:46 49° NNW 23:31:46 49° NNW
Cosmos 494 Rocket 4.0 23:33:16 63° W 23:33:42 66° WNW 23:38:49 10° NNE
Cosmos 1666 Rocket 3.9 23:37:07 62° NW 23:37:07 62° NW 23:41:06 10° N
Cosmos 2219 Rocket 2.9 23:39:38 10° NW 23:44:40 37° WSW 23:44:40 37° WSW
SL-08 R/B 4.4 23:45:17 63° SSW 23:46:19 79° W 23:52:30 10° N
Meteor 1-19 Rocket 4.4 23:43:45 10° NNW 23:49:14 56° W 23:49:32 55° WSW
SL-16 R/B 3.7 23:44:51 10° N 23:49:47 30° NE 23:52:42 19° E
Cosmos 1269 Rocket 4.1 23:50:05 63° E 23:50:05 63° E 23:55:06 10° NNE
PSLV R/B 4.3 23:48:01 10° NNE 23:52:12 50° ENE 23:52:12 50° ENE
Resurs 1-4 Rocket 4.5 23:53:15 10° ENE 23:54:20 11° E 23:55:13 10° E
